Location: Mentone
(34.5413°N, 85.5351°W)
Time: 15:15:02
(UTC-05:00)

ATLAS 5 CENTAUR R/B - Visible Passes

Search period start: 28 July 2016 00:00
Search period end: 07 August 2016 00:00
Orbit: 664 x 997 km, 63.4° (Epoch: 18 July)

Date Brightness Start Highest point End Pass type
(mag) Time Alt. Az. Time Alt. Az. Time Alt. Az.
28 Jul 2.6 20:03:35 10° NNW 20:09:40 65° ENE 20:16:06 10° SE visible
28 Jul 4.5 21:49:40 10° WNW 21:53:59 20° WSW 21:58:27 10° SSW visible
29 Jul 4.5 21:30:38 10° WNW 21:35:09 21° WSW 21:39:48 10° SSW visible
30 Jul 4.4 21:11:36 10° WNW 21:16:18 22° WSW 21:21:08 10° SSW visible
31 Jul 4.4 20:52:35 10° WNW 20:57:26 24° WSW 21:02:27 10° SSW visible
01 Aug 4.4 20:33:35 10° WNW 20:38:35 26° WSW 20:43:45 10° SSW visible
02 Aug 4.4 20:14:36 10° NW 20:19:44 27° WSW 20:25:02 10° SSW visible
